Location: Broletto
(44.6000°N, 10.5833°E)
Time: 07:44:01
(UTC+00:00)

Terra - Pass Details

Date: 18 April 2021
Orbit: 701 x 703 km, 98.2° (Epoch: 05 May)

Event Time Altitude Azimuth Distance (km) Brightness Sun altitude
Exits shadow 21:28:59 56° 308° (NW) 842 2.4 -29.1°
Drops below altitude 10° 21:32:56 10° 341° (NNW) 2,179 5.2 -29.5°
Sets 21:35:13 0° 345° (NNW) 3,102 6.3 -29.7°
